Flag for France Weather past 2 weeks in Strasbourg, France

43 °F

Partly sunny.

Feels Like: 39 °F
Forecast: 36 / 51 °F
Wind: 6 mph from Southwest

Location: Strasbourg Airport

Current Time: Nov 28, 2015 at 12:22:20 PM

Latest Report: Nov 28, 2015 at 11:30 AM

Visibility: N/A

Pressure: 30.07 "Hg

Humidity: 87%

Dew point: 39 °F

Location of StrasbourgLocation

Historic Weather in Strasbourg — Graph


Strasbourg temperature yesterday

Maximum temperature yesterday: 36 °F (at 3:00 PM)
Minimum temperature yesterday: 30 °F (at 2:00 AM)
Average temperature yesterday: 34 °F

Past Weeks' High & Low Weather Summary

High64 °F (Nov 15, 3:00 PM)100% (Nov 23, 8:30 AM)30.48 "Hg (Nov 23, 8:30 AM)
Low25 °F (Nov 24, 7:30 AM)39% (Nov 16, 11:30 AM)29.45 "Hg (Nov 21, 11:00 AM)
Average46 °F78%30.03 "Hg
* Reported Nov 13 11:00 AM — Nov 28 11:00 AM, Strasbourg, Weather by CustomWeather, © 2015

Note: Actual official high and low records may vary slightly from our data, if they occured in-between our weather recording intervals... More about our weather records


Strasbourg weather history for previous 24 hours

Time TempWeatherWind HumidityBarometerVisibility
11:00 AM
Sat, Nov 28
41 °FLight rain. Mostly cloudy.5 mph87%30.04 "HgN/A
10:30 AM39 °FLight rain. Partly sunny.5 mph87%30.04 "HgN/A
10:00 AM37 °FBroken clouds.8 mph93%30.01 "HgN/A
9:30 AM37 °FOvercast.6 mph87%30.01 "HgN/A
9:00 AM36 °FOvercast.8 mph93%29.98 "HgN/A
8:30 AM36 °FOvercast.10 mph87%29.95 "Hg6 mi
7:30 AM36 °FLight rain. Mostly cloudy.8 mph87%29.92 "Hg4 mi
7:00 AM36 °FLight rain. Mostly cloudy.8 mph87%29.92 "Hg4 mi
6:30 AM34 °FLight rain. Overcast.10 mph93%29.92 "Hg5 mi
5:30 AM34 °FLight rain. Overcast.8 mph87%29.92 "Hg4 mi
5:00 AM34 °FMostly cloudy.8 mph87%29.92 "Hg5 mi
4:30 AM34 °FMostly cloudy.8 mph87%29.92 "Hg5 mi
4:00 AM32 °FLow clouds.8 mph93%29.92 "Hg4 mi
3:30 AM32 °FLow clouds.9 mph93%29.92 "Hg4 mi
3:00 AM32 °FLow clouds.9 mph93%29.95 "Hg4 mi
2:30 AM32 °FLow clouds.8 mph93%29.95 "Hg4 mi
1:00 AM32 °FLow clouds.6 mph93%29.98 "Hg4 mi
12:30 AM34 °FLow clouds.8 mph87%29.98 "Hg6 mi
12:00 AM34 °FLow clouds.7 mph87%29.98 "Hg5 mi
11:30 PM
Fri, Nov 27
34 °FLow clouds.7 mph87%29.98 "Hg6 mi
11:00 PM34 °FLow clouds.7 mph87%29.98 "Hg5 mi
10:30 PM34 °FLow clouds.8 mph87%30.01 "Hg6 mi
10:00 PM34 °FLow clouds.7 mph87%30.01 "Hg5 mi
9:30 PM34 °FLow clouds.7 mph93%30.01 "Hg5 mi
9:00 PM34 °FLow clouds.7 mph93%30.01 "Hg4 mi
8:30 PM34 °FLow clouds.8 mph93%30.04 "Hg4 mi
8:00 PM36 °FLow clouds.5 mph87%30.04 "Hg4 mi
7:30 PM36 °FLow clouds.7 mph87%30.04 "Hg4 mi
7:00 PM36 °FLow clouds.6 mph87%30.04 "Hg6 mi
6:30 PM36 °FLow clouds.3 mph87%30.04 "Hg5 mi
6:00 PM36 °FLow clouds.5 mph87%30.04 "Hg4 mi
5:30 PM36 °FLow clouds.3 mph87%30.04 "Hg5 mi
5:00 PM36 °FLow clouds.3 mph87%30.04 "Hg5 mi
4:30 PM36 °FLow clouds.2 mph87%30.04 "Hg5 mi
4:00 PM36 °FLow clouds.3 mph87%30.04 "Hg5 mi
3:30 PM36 °FLow clouds.1 mph87%30.04 "Hg6 mi
3:00 PM36 °FLow clouds.2 mph87%30.07 "Hg6 mi
2:30 PM34 °FLow clouds.2 mph93%30.07 "Hg5 mi
2:00 PM34 °FLow clouds.2 mph93%30.07 "Hg4 mi
1:30 PM34 °FLow clouds.3 mph100%30.07 "Hg4 mi
1:00 PM34 °FLow clouds.5 mph93%30.09 "Hg4 mi
12:30 PM34 °FLow clouds.5 mph100%30.09 "Hg4 mi
12:00 PM34 °FFog.5 mph100%30.12 "Hg3 mi
Weather by CustomWeather, © 2015

See weather overviewHow to use our weather pages